sat.trackr.live / text

‹ back to catalog

STARLINK-35907

NORAD 66498 · 2025-263P

PAYLOAD ACTIVE UNKNOWN

§ Identity

Operator
Country
US
Launch date
2025-11-15
Launch site
AFETR
Launch vehicle
Mass (kg)
RCS (m²)

Purposes: comms

External: N2YO · Heavens-Above · Gunter

§ Orbital elements

Epoch: 2026-05-24T17:08:26.022048Z

Period
94.27 min
Inclination
43.0020°
Eccentricity
0.0000972
Mean motion
15.27592914 rev/d
Perigee alt
482.3 km
Apogee alt
483.7 km
Semi-major
6,861.1 km
B*
1.0197e-3
RAAN
281.5502°
Arg perigee
268.3803°
Mean anomaly
91.6938°
Rev number
3,052

§ Raw data

STARLINK-359071 66498U 25263P   26144.71419007  .00027915  00000+0  10197-2 0  99902 66498  43.0020 281.5502 0000972 268.3803  91.6938 15.27592914 30526

JSON: /api/v1/satellites/66498 · /tle

For live sub-satellite position, see the globe view (requires WebGL).

§ Visibility from observer

Set your observer location to see the next 7 days of passes ≥ 10°. The values pass through the URL so the page stays shareable.

No JS? Fill the form by hand. The geolocation button needs JavaScript.